Home   Weather   Kalamazoo   Past weeks

Flag for USA Past Weather in Kalamazoo, Michigan, USA — Yesterday and Last 2 Weeks

Now
35 °F

Overcast.


Feels Like: 29 °F
Forecast: 30 / 39 °F
Wind: 7 mph from East

Location: Kalamazoo / Battle Creek International Airport

Current Time: Dec 6, 2016 at 11:07:59 am

Latest Report: Dec 6, 2016 at 9:53 am


Visibility: 3 mi

Pressure: 29.77 "Hg

Humidity: 82%

Dew Point: 30 °F

Location of KalamazooLocation

Past Weather in Kalamazoo — Graph

°F

Kalamazoo Temperature Yesterday

Maximum temperature yesterday: 36 °F (at 10:53 am)
Minimum temperature yesterday: 29 °F (at 11:53 pm)
Average temperature yesterday: 34 °F

High & Low Weather Summary for the Past Weeks

 TemperatureHumidityPressure
High57 °F (Nov 29, 1:53 pm)93% (Nov 23, 5:53 pm)30.39 "Hg (Nov 23, 5:53 pm)
Low21 °F (Nov 22, 6:53 am)46% (Nov 30, 2:53 pm)29.26 "Hg (Nov 28, 10:53 pm)
Average38 °F78%30.02 "Hg
* Reported Nov 21 9:53 am — Dec 6 9:53 am, Kalamazoo, Weather by CustomWeather, © 2016

Note: Actual official high and low records may vary slightly from our data, if they occured in-between our weather recording intervals... More about our weather records

Advertising

Kalamazoo Weather History for the Previous 24 Hours

Scroll right to see more
 ConditionsComfort  
Time TempWeatherWind HumidityBarometerVisibility
9:53 am
Tue, Dec 6
35 °FOvercast.7 mph82%29.77 "Hg3 mi
8:53 am33 °FFog.5 mph85%29.82 "Hg3 mi
7:53 am32 °FIce fog.3 mph85%29.84 "Hg4 mi
6:53 am31 °FIce fog.5 mph85%29.85 "Hg4 mi
5:53 am30 °FIce fog.5 mph85%29.88 "Hg4 mi
4:53 am30 °FIce fog.5 mph85%29.92 "Hg4 mi
3:53 am30 °FIce fog.6 mph89%29.94 "Hg5 mi
2:53 am30 °FIce fog.7 mph85%29.96 "Hg4 mi
1:53 am28 °FIce fog.3 mph89%29.98 "Hg3 mi
12:53 am29 °FIce fog.No wind89%30.00 "Hg3 mi
11:53 pm
Mon, Dec 5
29 °FIce fog.3 mph89%30.03 "Hg3 mi
10:53 pm30 °FIce fog.No wind85%30.03 "Hg4 mi
9:53 pm31 °FIce fog.5 mph85%30.05 "Hg6 mi
8:53 pm32 °FLow clouds.6 mph82%30.06 "Hg6 mi
7:53 pm33 °FLow clouds.8 mph82%30.06 "Hg8 mi
6:53 pm33 °FOvercast.5 mph82%30.04 "Hg8 mi
5:53 pm34 °FOvercast.8 mph79%30.07 "Hg8 mi
4:53 pm34 °FOvercast.9 mph79%30.07 "Hg8 mi
4:00 pm34 °FOvercast.13 mph76%30.06 "Hg8 mi
2:53 pm34 °FLow clouds.13 mph79%30.06 "Hg5 mi
1:53 pm34 °FLow clouds.14 mph82%30.07 "Hg5 mi
12:53 pm35 °FOvercast.14 mph82%30.06 "Hg5 mi
11:53 am35 °FMore clouds than sun.13 mph82%30.08 "Hg6 mi
Weather by CustomWeather, © 2016

See weather overviewHow to use our weather pages